Clarksville, TN

7:04 AM CDT on July 22, 2017 (GMT -0500)
Outlaw

Weather History for KCKV - October, 2013

Change the Weather History Date:

Wednesday, October 9, 2013

  Actual Average Record
Temperature  
Mean Temperature 64 °F 61 °F  
Max Temperature 78 °F 74 °F 87 °F (1963)
Min Temperature 50 °F 49 °F 34 °F (1978)
Degree Days  
Heating Degree Days 1 5  
Month to date heating degree days 19 38  
Since 1 July heating degree days 27 67  
Cooling Degree Days 0 1  
Month to date cooling degree days 48 15  
Year to date cooling degree days 1414  
Growing Degree Days 14 (Base 50)    
Moisture  
Dew Point 55 °F    
Average Humidity 73    
Maximum Humidity 97    
Minimum Humidity 48    
Precipitation  
Precipitation 0.00 in 0.14 in 1.02 in (1990)
Month to date precipitation 1.54 1.15  
Year to date precipitation 37.81  
Sea Level Pressure  
Sea Level Pressure 30.13 in    
Wind  
Wind Speed 1 mph (SSE)    
Max Wind Speed 7 mph    
Max Gust Speed 12 mph    
Visibility 10 miles    
Events      
T = Trace of Precipitation, MM = Missing Value Source: NWS Daily Summary

Daily Weather History Graph

Daily Weather History Graph

Search for Another Location

Airport or City:

Trip Planner

Search our weather history database for the weather conditions in past years. The results will help you decide how hot, cold, wet, or windy it might be!

Date:

Astronomy

Oct. 09, 2013 Rise Set
Actual Time 6:51 AM CDT 6:21 PM CDT
Civil Twilight 6:26 AM CDT 6:47 PM CDT
Nautical Twilight 5:56 AM CDT 7:16 PM CDT
Astronomical Twilight 5:26 AM CDT 7:46 PM CDT
Moon 11:40 AM CDT (10/9) 10:01 PM CDT (10/9)
Length of Visible Light 12h 21m
Length of Day
11h 29m
Waxing Crescent, 25% of the Moon is Illuminated
Oct 9
Waxing Crescent
Oct 11
First Quarter
Oct 18
Full
Oct 26
Last Quarter
Nov 3
New

Hourly Weather History & Observations

Time (CDT) Temp. Dew Point Humidity Pressure Visibility Wind Dir Wind Speed Gust Speed Precip Events Conditions
12:52 AM 53.1 °F 46.9 °F 80% 30.12 in 10.0 mi Calm Calm - N/A   Clear
1:52 AM 53.1 °F 48.0 °F 83% 30.12 in 10.0 mi Calm Calm - N/A   Clear
2:52 AM 51.1 °F 46.9 °F 86% 30.11 in 10.0 mi Calm Calm - N/A   Clear
3:52 AM 52.0 °F 48.0 °F 86% 30.11 in 10.0 mi Calm Calm - N/A   Mostly Cloudy
4:52 AM 50.0 °F 48.0 °F 93% 30.12 in 10.0 mi Calm Calm - N/A   Clear
5:52 AM 50.0 °F 48.0 °F 93% 30.13 in 10.0 mi Calm Calm - N/A   Clear
6:52 AM 50.0 °F 48.0 °F 93% 30.14 in 7.0 mi Calm Calm - N/A   Clear
7:52 AM 53.1 °F 50.0 °F 89% 30.17 in 6.0 mi Calm Calm - N/A   Clear
8:52 AM 57.9 °F 52.0 °F 81% 30.17 in 7.0 mi Calm Calm - N/A   Partly Cloudy
9:52 AM 64.9 °F 55.0 °F 70% 30.18 in 10.0 mi South 4.6 mph - N/A   Clear
10:52 AM 70.0 °F 57.9 °F 65% 30.18 in 10.0 mi South 4.6 mph - N/A   Clear
11:52 AM 73.0 °F 59.0 °F 61% 30.17 in 10.0 mi Calm Calm - N/A   Clear
12:52 PM 75.9 °F 60.1 °F 58% 30.15 in 10.0 mi WNW 4.6 mph - N/A   Clear
1:52 PM 78.1 °F 60.1 °F 54% 30.13 in 10.0 mi NNW 4.6 mph - N/A   Scattered Clouds
2:52 PM 75.9 °F 59.0 °F 56% 30.11 in 10.0 mi ESE 3.5 mph - N/A   Scattered Clouds
3:52 PM 78.1 °F 57.9 °F 50% 30.10 in 9.0 mi Calm Calm - N/A   Clear
4:52 PM 77.0 °F 59.0 °F 54% 30.10 in 10.0 mi SSE 3.5 mph - N/A   Clear
5:52 PM 75.0 °F 59.0 °F 57% 30.10 in 10.0 mi Calm Calm - N/A   Clear
6:52 PM 70.0 °F 60.1 °F 71% 30.10 in 10.0 mi Calm Calm - N/A   Partly Cloudy
7:52 PM 66.0 °F 60.1 °F 81% 30.12 in 10.0 mi Calm Calm - N/A   Clear
8:52 PM 63.0 °F 60.1 °F 90% 30.12 in 10.0 mi Calm Calm - N/A   Clear
9:52 PM 64.0 °F 60.1 °F 87% 30.12 in 10.0 mi Calm Calm - N/A   Mostly Cloudy
10:52 PM 64.0 °F 59.0 °F 84% 30.12 in 10.0 mi East 3.5 mph - N/A   Partly Cloudy
11:52 PM 61.0 °F 59.0 °F 93% 30.12 in 8.0 mi Calm Calm - N/A   Scattered Clouds